owner,sensor,date,latitude,longitude,sea_surface_height_above_sea_level,qcFlag 
WAVCIS,ioos:station:WAVCIS:CSI16:1,2011-09-01T00:00:00Z,29.4012,-89.0355,8.803,11111222 
WAVCIS,ioos:station:WAVCIS:CSI16:1,2011-09-01T01:00:00Z,29.4012,-89.0355,8.844,11111222 
WAVCIS,ioos:station:WAVCIS:CSI16:1,2011-09-01T02:00:00Z,29.4012,-89.0355,8.882,11111222 
WAVCIS,ioos:station:WAVCIS:CSI16:1,2011-09-01T03:00:00Z,29.4012,-89.0355,8.897,11111222 
WAVCIS,ioos:station:WAVCIS:CSI16:1,2011-09-01T04:00:00Z,29.4012,-89.0355,8.935,11111222 
WAVCIS,ioos:station:WAVCIS:CSI16:1,2011-09-01T05:00:00Z,29.4012,-89.0355,8.911,11111222 
WAVCIS,ioos:station:WAVCIS:CSI16:1,2011-09-01T06:00:00Z,29.4012,-89.0355,8.909,11111222 
WAVCIS,ioos:station:WAVCIS:CSI16:1,2011-09-01T07:00:00Z,29.4012,-89.0355,8.909,11111222 
WAVCIS,ioos:station:WAVCIS:CSI16:1,2011-09-01T08:00:00Z,29.4012,-89.0355,8.868,11111222 
WAVCIS,ioos:station:WAVCIS:CSI16:1,2011-09-01T09:00:00Z,29.4012,-89.0355,8.841,11111222 
WAVCIS,ioos:station:WAVCIS:CSI16:1,2011-09-01T10:00:00Z,29.4012,-89.0355,8.822,11111222 
WAVCIS,ioos:station:WAVCIS:CSI16:1,2011-09-01T11:00:00Z,29.4012,-89.0355,8.766,11111222 
WAVCIS,ioos:station:WAVCIS:CSI16:1,2011-09-01T12:00:00Z,29.4012,-89.0355,8.767,11111222 
WAVCIS,ioos:station:WAVCIS:CSI16:1,2011-09-01T13:00:00Z,29.4012,-89.0355,8.767,11111222 
WAVCIS,ioos:station:WAVCIS:CSI16:1,2011-09-01T14:00:00Z,29.4012,-89.0355,8.726,11111222 
WAVCIS,ioos:station:WAVCIS:CSI16:1,2011-09-01T15:00:00Z,29.4012,-89.0355,8.733,11111222 
WAVCIS,ioos:station:WAVCIS:CSI16:1,2011-09-01T16:00:00Z,29.4012,-89.0355,8.758,11111222 
WAVCIS,ioos:station:WAVCIS:CSI16:1,2011-09-01T17:00:00Z,29.4012,-89.0355,8.731,11111222 
WAVCIS,ioos:station:WAVCIS:CSI16:1,2011-09-01T18:00:00Z,29.4012,-89.0355,8.72,11111222 
WAVCIS,ioos:station:WAVCIS:CSI16:1,2011-09-01T19:00:00Z,29.4012,-89.0355,8.787,11111222 
WAVCIS,ioos:station:WAVCIS:CSI16:1,2011-09-01T20:00:00Z,29.4012,-89.0355,8.813,11111222 
WAVCIS,ioos:station:WAVCIS:CSI16:1,2011-09-01T21:00:00Z,29.4012,-89.0355,8.81,11111222 
WAVCIS,ioos:station:WAVCIS:CSI16:1,2011-09-01T22:00:00Z,29.4012,-89.0355,8.799,11111222 
WAVCIS,ioos:station:WAVCIS:CSI16:1,2011-09-01T23:00:00Z,29.4012,-89.0355,8.843,11111222 
WAVCIS,ioos:station:WAVCIS:CSI16:1,2011-09-02T00:00:00Z,29.4012,-89.0355,8.863,11111222 
WAVCIS,ioos:station:WAVCIS:CSI16:1,2011-09-02T01:00:00Z,29.4012,-89.0355,8.905,11111222 
WAVCIS,ioos:station:WAVCIS:CSI16:1,2011-09-02T02:00:00Z,29.4012,-89.0355,8.97,11111222 
WAVCIS,ioos:station:WAVCIS:CSI16:1,2011-09-02T03:00:00Z,29.4012,-89.0355,9.002,11111222 
WAVCIS,ioos:station:WAVCIS:CSI16:1,2011-09-02T04:00:00Z,29.4012,-89.0355,9.02,11111222 
WAVCIS,ioos:station:WAVCIS:CSI16:1,2011-09-02T05:00:00Z,29.4012,-89.0355,9.009,11111222 
WAVCIS,ioos:station:WAVCIS:CSI16:1,2011-09-02T06:00:00Z,29.4012,-89.0355,9.019,11111222 
WAVCIS,ioos:station:WAVCIS:CSI16:1,2011-09-02T07:00:00Z,29.4012,-89.0355,9.009,11111222 
WAVCIS,ioos:station:WAVCIS:CSI16:1,2011-09-02T08:00:00Z,29.4012,-89.0355,8.997,11111222 
WAVCIS,ioos:station:WAVCIS:CSI16:1,2011-09-02T09:00:00Z,29.4012,-89.0355,8.921,11111222 
WAVCIS,ioos:station:WAVCIS:CSI16:1,2011-09-02T10:00:00Z,29.4012,-89.0355,8.909,11111222 
WAVCIS,ioos:station:WAVCIS:CSI16:1,2011-09-02T11:00:00Z,29.4012,-89.0355,8.816,11111222 
WAVCIS,ioos:station:WAVCIS:CSI16:1,2011-09-02T12:00:00Z,29.4012,-89.0355,8.782,11111222 
WAVCIS,ioos:station:WAVCIS:CSI16:1,2011-09-02T13:00:00Z,29.4012,-89.0355,8.756,11111222 
WAVCIS,ioos:station:WAVCIS:CSI16:1,2011-09-02T14:00:00Z,29.4012,-89.0355,8.751,11111222 
WAVCIS,ioos:station:WAVCIS:CSI16:1,2011-09-02T15:00:00Z,29.4012,-89.0355,8.731,11111222 
WAVCIS,ioos:station:WAVCIS:CSI16:1,2011-09-02T16:00:00Z,29.4012,-89.0355,8.73,11111222 
WAVCIS,ioos:station:WAVCIS:CSI16:1,2011-09-02T17:00:00Z,29.4012,-89.0355,8.686,11111222 
WAVCIS,ioos:station:WAVCIS:CSI16:1,2011-09-02T18:00:00Z,29.4012,-89.0355,8.725,11111222 
WAVCIS,ioos:station:WAVCIS:CSI16:1,2011-09-02T19:00:00Z,29.4012,-89.0355,8.779,11111222 
WAVCIS,ioos:station:WAVCIS:CSI16:1,2011-09-02T20:00:00Z,29.4012,-89.0355,8.777,11111222 
WAVCIS,ioos:station:WAVCIS:CSI16:1,2011-09-02T21:00:00Z,29.4012,-89.0355,8.823,11111222 
WAVCIS,ioos:station:WAVCIS:CSI16:1,2011-09-02T22:00:00Z,29.4012,-89.0355,8.867,11111222 
WAVCIS,ioos:station:WAVCIS:CSI16:1,2011-09-02T23:00:00Z,29.4012,-89.0355,8.898,11111222 
WAVCIS,ioos:station:WAVCIS:CSI16:1,2011-09-03T00:00:00Z,29.4012,-89.0355,8.952,11111222 
WAVCIS,ioos:station:WAVCIS:CSI16:1,2011-09-03T01:00:00Z,29.4012,-89.0355,8.994,11111222 
WAVCIS,ioos:station:WAVCIS:CSI16:1,2011-09-03T02:00:00Z,29.4012,-89.0355,9.059,11111222 
WAVCIS,ioos:station:WAVCIS:CSI16:1,2011-09-03T03:00:00Z,29.4012,-89.0355,9.106,11111222 
WAVCIS,ioos:station:WAVCIS:CSI16:1,2011-09-03T04:00:00Z,29.4012,-89.0355,9.153,11111222 
WAVCIS,ioos:station:WAVCIS:CSI16:1,2011-09-03T05:00:00Z,29.4012,-89.0355,9.174,11111222 
WAVCIS,ioos:station:WAVCIS:CSI16:1,2011-09-03T06:00:00Z,29.4012,-89.0355,9.14,11111222 
WAVCIS,ioos:station:WAVCIS:CSI16:1,2011-09-03T07:00:00Z,29.4012,-89.0355,9.146,11111222 
WAVCIS,ioos:station:WAVCIS:CSI16:1,2011-09-03T08:00:00Z,29.4012,-89.0355,9.133,11111222 
WAVCIS,ioos:station:WAVCIS:CSI16:1,2011-09-03T09:00:00Z,29.4012,-89.0355,9.099,11111222 
WAVCIS,ioos:station:WAVCIS:CSI16:1,2011-09-03T10:00:00Z,29.4012,-89.0355,9.066,11111222 
WAVCIS,ioos:station:WAVCIS:CSI16:1,2011-09-03T11:00:00Z,29.4012,-89.0355,9.009,11111222 
WAVCIS,ioos:station:WAVCIS:CSI16:1,2011-09-03T12:00:00Z,29.4012,-89.0355,8.918,11111222 
WAVCIS,ioos:station:WAVCIS:CSI16:1,2011-09-03T13:00:00Z,29.4012,-89.0355,8.83,11111222 
WAVCIS,ioos:station:WAVCIS:CSI16:1,2011-09-03T14:00:00Z,29.4012,-89.0355,8.765,11111222 
WAVCIS,ioos:station:WAVCIS:CSI16:1,2011-09-03T15:00:00Z,29.4012,-89.0355,8.74,11111222 
WAVCIS,ioos:station:WAVCIS:CSI16:1,2011-09-03T16:00:00Z,29.4012,-89.0355,8.727,11111222 
WAVCIS,ioos:station:WAVCIS:CSI16:1,2011-09-03T17:00:00Z,29.4012,-89.0355,8.716,11111222 
WAVCIS,ioos:station:WAVCIS:CSI16:1,2011-09-03T18:00:00Z,29.4012,-89.0355,8.663,11111222 
WAVCIS,ioos:station:WAVCIS:CSI16:1,2011-09-03T19:00:00Z,29.4012,-89.0355,8.678,11111222 
WAVCIS,ioos:station:WAVCIS:CSI16:1,2011-09-03T20:00:00Z,29.4012,-89.0355,8.691,11111222 
WAVCIS,ioos:station:WAVCIS:CSI16:1,2011-09-03T21:00:00Z,29.4012,-89.0355,8.704,11111222 
WAVCIS,ioos:station:WAVCIS:CSI16:1,2011-09-03T22:00:00Z,29.4012,-89.0355,8.76,11111222 
WAVCIS,ioos:station:WAVCIS:CSI16:1,2011-09-03T23:00:00Z,29.4012,-89.0355,8.794,11111222 
WAVCIS,ioos:station:WAVCIS:CSI16:1,2011-09-04T00:00:00Z,29.4012,-89.0355,8.862,11111222 
WAVCIS,ioos:station:WAVCIS:CSI16:1,2011-09-04T01:00:00Z,29.4012,-89.0355,8.898,11111222 
WAVCIS,ioos:station:WAVCIS:CSI16:1,2011-09-04T02:00:00Z,29.4012,-89.0355,8.997,11111222 
WAVCIS,ioos:station:WAVCIS:CSI16:1,2011-09-04T03:00:00Z,29.4012,-89.0355,9.046,11111222 
WAVCIS,ioos:station:WAVCIS:CSI16:1,2011-09-04T04:00:00Z,29.4012,-89.0355,9.136,11111222 
WAVCIS,ioos:station:WAVCIS:CSI16:1,2011-09-04T05:00:00Z,29.4012,-89.0355,9.171,11111222 
WAVCIS,ioos:station:WAVCIS:CSI16:1,2011-09-04T06:00:00Z,29.4012,-89.0355,9.197,11111222 
WAVCIS,ioos:station:WAVCIS:CSI16:1,2011-09-04T07:00:00Z,29.4012,-89.0355,9.192,11111222 
WAVCIS,ioos:station:WAVCIS:CSI16:1,2011-09-04T08:00:00Z,29.4012,-89.0355,9.215,11111222 
WAVCIS,ioos:station:WAVCIS:CSI16:1,2011-09-04T09:00:00Z,29.4012,-89.0355,9.172,11111222 
WAVCIS,ioos:station:WAVCIS:CSI16:1,2011-09-04T10:00:00Z,29.4012,-89.0355,9.145,11111222 
WAVCIS,ioos:station:WAVCIS:CSI16:1,2011-09-04T11:00:00Z,29.4012,-89.0355,9.104,11111222 
WAVCIS,ioos:station:WAVCIS:CSI16:1,2011-09-04T12:00:00Z,29.4012,-89.0355,9.061,11111222 
WAVCIS,ioos:station:WAVCIS:CSI16:1,2011-09-04T13:00:00Z,29.4012,-89.0355,8.983,11111222 
WAVCIS,ioos:station:WAVCIS:CSI16:1,2011-09-04T14:00:00Z,29.4012,-89.0355,8.927,11111222 
WAVCIS,ioos:station:WAVCIS:CSI16:1,2011-09-04T15:00:00Z,29.4012,-89.0355,8.859,11111222 
WAVCIS,ioos:station:WAVCIS:CSI16:1,2011-09-04T16:00:00Z,29.4012,-89.0355,8.834,11111222 
WAVCIS,ioos:station:WAVCIS:CSI16:1,2011-09-04T17:00:00Z,29.4012,-89.0355,8.743,11111222 
WAVCIS,ioos:station:WAVCIS:CSI16:1,2011-09-04T18:00:00Z,29.4012,-89.0355,8.746,11111222 
WAVCIS,ioos:station:WAVCIS:CSI16:1,2011-09-04T19:00:00Z,29.4012,-89.0355,8.606,11111222 
WAVCIS,ioos:station:WAVCIS:CSI16:1,2011-09-04T20:00:00Z,29.4012,-89.0355,8.665,11111222 
WAVCIS,ioos:station:WAVCIS:CSI16:1,2011-09-04T21:00:00Z,29.4012,-89.0355,8.705,11111222 
WAVCIS,ioos:station:WAVCIS:CSI16:1,2011-09-04T22:00:00Z,29.4012,-89.0355,8.713,11111222 
WAVCIS,ioos:station:WAVCIS:CSI16:1,2011-09-04T23:00:00Z,29.4012,-89.0355,8.731,11111222 
WAVCIS,ioos:station:WAVCIS:CSI16:1,2011-09-05T00:00:00Z,29.4012,-89.0355,8.817,11111222 
WAVCIS,ioos:station:WAVCIS:CSI16:1,2011-09-05T01:00:00Z,29.4012,-89.0355,8.844,11111222 
WAVCIS,ioos:station:WAVCIS:CSI16:1,2011-09-05T02:00:00Z,29.4012,-89.0355,8.903,11111222 
WAVCIS,ioos:station:WAVCIS:CSI16:1,2011-09-05T03:00:00Z,29.4012,-89.0355,8.954,11111222 
WAVCIS,ioos:station:WAVCIS:CSI16:1,2011-09-05T04:00:00Z,29.4012,-89.0355,8.993,11111222 
WAVCIS,ioos:station:WAVCIS:CSI16:1,2011-09-05T05:00:00Z,29.4012,-89.0355,9.036,11111222 
WAVCIS,ioos:station:WAVCIS:CSI16:1,2011-09-05T06:00:00Z,29.4012,-89.0355,9.049,11111222 
WAVCIS,ioos:station:WAVCIS:CSI16:1,2011-09-05T07:00:00Z,29.4012,-89.0355,9.067,11111222 
WAVCIS,ioos:station:WAVCIS:CSI16:1,2011-09-05T08:00:00Z,29.4012,-89.0355,9.069,11111222 
WAVCIS,ioos:station:WAVCIS:CSI16:1,2011-09-05T09:00:00Z,29.4012,-89.0355,9.067,11111222 
WAVCIS,ioos:station:WAVCIS:CSI16:1,2011-09-05T10:00:00Z,29.4012,-89.0355,9.053,11111222 
WAVCIS,ioos:station:WAVCIS:CSI16:1,2011-09-05T11:00:00Z,29.4012,-89.0355,9.022,11111222 
WAVCIS,ioos:station:WAVCIS:CSI16:1,2011-09-05T12:00:00Z,29.4012,-89.0355,8.912,11111222 
WAVCIS,ioos:station:WAVCIS:CSI16:1,2011-09-05T13:00:00Z,29.4012,-89.0355,8.903,11111222 
WAVCIS,ioos:station:WAVCIS:CSI16:1,2011-09-05T14:00:00Z,29.4012,-89.0355,8.808,11111222 
WAVCIS,ioos:station:WAVCIS:CSI16:1,2011-09-05T15:00:00Z,29.4012,-89.0355,8.753,11111222 
WAVCIS,ioos:station:WAVCIS:CSI16:1,2011-09-05T16:00:00Z,29.4012,-89.0355,8.657,11111222 
WAVCIS,ioos:station:WAVCIS:CSI16:1,2011-09-05T17:00:00Z,29.4012,-89.0355,8.621,11111222 
WAVCIS,ioos:station:WAVCIS:CSI16:1,2011-09-05T18:00:00Z,29.4012,-89.0355,8.519,11111222 
WAVCIS,ioos:station:WAVCIS:CSI16:1,2011-09-05T19:00:00Z,29.4012,-89.0355,8.49,11111222 
WAVCIS,ioos:station:WAVCIS:CSI16:1,2011-09-05T20:00:00Z,29.4012,-89.0355,8.438,11111222 
WAVCIS,ioos:station:WAVCIS:CSI16:1,2011-09-05T21:00:00Z,29.4012,-89.0355,8.4,11111222 
WAVCIS,ioos:station:WAVCIS:CSI16:1,2011-09-05T22:00:00Z,29.4012,-89.0355,8.426,11111222 
WAVCIS,ioos:station:WAVCIS:CSI16:1,2011-09-05T23:00:00Z,29.4012,-89.0355,8.474,11111222 
WAVCIS,ioos:station:WAVCIS:CSI16:1,2011-09-06T00:00:00Z,29.4012,-89.0355,8.53,11111222 
WAVCIS,ioos:station:WAVCIS:CSI16:1,2011-09-06T01:00:00Z,29.4012,-89.0355,8.611,11111222 
WAVCIS,ioos:station:WAVCIS:CSI16:1,2011-09-06T02:00:00Z,29.4012,-89.0355,8.62,11111222 
WAVCIS,ioos:station:WAVCIS:CSI16:1,2011-09-06T03:00:00Z,29.4012,-89.0355,8.693,11111222 
WAVCIS,ioos:station:WAVCIS:CSI16:1,2011-09-06T04:00:00Z,29.4012,-89.0355,8.761,11111222 
WAVCIS,ioos:station:WAVCIS:CSI16:1,2011-09-06T05:00:00Z,29.4012,-89.0355,8.859,11111222 
WAVCIS,ioos:station:WAVCIS:CSI16:1,2011-09-06T06:00:00Z,29.4012,-89.0355,8.925,11111222 
WAVCIS,ioos:station:WAVCIS:CSI16:1,2011-09-06T07:00:00Z,29.4012,-89.0355,9.0,11111222 
WAVCIS,ioos:station:WAVCIS:CSI16:1,2011-09-06T08:00:00Z,29.4012,-89.0355,9.035,11111222 
WAVCIS,ioos:station:WAVCIS:CSI16:1,2011-09-06T09:00:00Z,29.4012,-89.0355,9.073,11111222 
WAVCIS,ioos:station:WAVCIS:CSI16:1,2011-09-06T10:00:00Z,29.4012,-89.0355,9.094,11111222 
WAVCIS,ioos:station:WAVCIS:CSI16:1,2011-09-06T11:00:00Z,29.4012,-89.0355,9.096,11111222 
WAVCIS,ioos:station:WAVCIS:CSI16:1,2011-09-06T12:00:00Z,29.4012,-89.0355,9.075,11111222 
WAVCIS,ioos:station:WAVCIS:CSI16:1,2011-09-06T13:00:00Z,29.4012,-89.0355,9.048,11111222 
WAVCIS,ioos:station:WAVCIS:CSI16:1,2011-09-06T14:00:00Z,29.4012,-89.0355,8.991,11111222 
WAVCIS,ioos:station:WAVCIS:CSI16:1,2011-09-06T15:00:00Z,29.4012,-89.0355,8.931,11111222 
WAVCIS,ioos:station:WAVCIS:CSI16:1,2011-09-06T16:00:00Z,29.4012,-89.0355,8.873,11111222 
WAVCIS,ioos:station:WAVCIS:CSI16:1,2011-09-06T17:00:00Z,29.4012,-89.0355,8.811,11111222 
WAVCIS,ioos:station:WAVCIS:CSI16:1,2011-09-06T18:00:00Z,29.4012,-89.0355,8.763,11111222 
WAVCIS,ioos:station:WAVCIS:CSI16:1,2011-09-06T19:00:00Z,29.4012,-89.0355,8.707,11111222 
WAVCIS,ioos:station:WAVCIS:CSI16:1,2011-09-06T20:00:00Z,29.4012,-89.0355,8.669,11111222 
WAVCIS,ioos:station:WAVCIS:CSI16:1,2011-09-06T21:00:00Z,29.4012,-89.0355,8.64,11111222 
WAVCIS,ioos:station:WAVCIS:CSI16:1,2011-09-06T22:00:00Z,29.4012,-89.0355,8.616,11111222 
WAVCIS,ioos:station:WAVCIS:CSI16:1,2011-09-06T23:00:00Z,29.4012,-89.0355,8.612,11111222 
WAVCIS,ioos:station:WAVCIS:CSI16:1,2011-09-07T00:00:00Z,29.4012,-89.0355,8.629,11111222 
WAVCIS,ioos:station:WAVCIS:CSI16:1,2011-09-07T01:00:00Z,29.4012,-89.0355,8.658,11111222 
WAVCIS,ioos:station:WAVCIS:CSI16:1,2011-09-07T02:00:00Z,29.4012,-89.0355,8.693,11111222 
WAVCIS,ioos:station:WAVCIS:CSI16:1,2011-09-07T03:00:00Z,29.4012,-89.0355,8.751,11111222 
WAVCIS,ioos:station:WAVCIS:CSI16:1,2011-09-07T05:00:00Z,29.4012,-89.0355,8.795,11111222 
WAVCIS,ioos:station:WAVCIS:CSI16:1,2011-09-07T06:00:00Z,29.4012,-89.0355,8.851,11111222 
WAVCIS,ioos:station:WAVCIS:CSI16:1,2011-09-07T07:00:00Z,29.4012,-89.0355,8.903,11111222 
WAVCIS,ioos:station:WAVCIS:CSI16:1,2011-09-07T08:00:00Z,29.4012,-89.0355,8.945,11111222 
WAVCIS,ioos:station:WAVCIS:CSI16:1,2011-09-07T09:00:00Z,29.4012,-89.0355,8.962,11111222 
WAVCIS,ioos:station:WAVCIS:CSI16:1,2011-09-07T10:00:00Z,29.4012,-89.0355,8.982,11111222 
WAVCIS,ioos:station:WAVCIS:CSI16:1,2011-09-07T11:00:00Z,29.4012,-89.0355,9.016,11111222 
WAVCIS,ioos:station:WAVCIS:CSI16:1,2011-09-07T12:00:00Z,29.4012,-89.0355,9.022,11111222 
WAVCIS,ioos:station:WAVCIS:CSI16:1,2011-09-07T13:00:00Z,29.4012,-89.0355,9.005,11111222 
WAVCIS,ioos:station:WAVCIS:CSI16:1,2011-09-07T14:00:00Z,29.4012,-89.0355,8.983,11111222 
WAVCIS,ioos:station:WAVCIS:CSI16:1,2011-09-07T15:00:00Z,29.4012,-89.0355,8.946,11111222 
WAVCIS,ioos:station:WAVCIS:CSI16:1,2011-09-07T16:00:00Z,29.4012,-89.0355,8.883,11111222 
WAVCIS,ioos:station:WAVCIS:CSI16:1,2011-09-07T17:00:00Z,29.4012,-89.0355,8.813,11111222 
WAVCIS,ioos:station:WAVCIS:CSI16:1,2011-09-07T18:00:00Z,29.4012,-89.0355,8.763,11111222 
WAVCIS,ioos:station:WAVCIS:CSI16:1,2011-09-07T19:00:00Z,29.4012,-89.0355,8.723,11111222 
WAVCIS,ioos:station:WAVCIS:CSI16:1,2011-09-07T20:00:00Z,29.4012,-89.0355,8.677,11111222 
WAVCIS,ioos:station:WAVCIS:CSI16:1,2011-09-07T21:00:00Z,29.4012,-89.0355,8.652,11111222 
WAVCIS,ioos:station:WAVCIS:CSI16:1,2011-09-07T22:00:00Z,29.4012,-89.0355,8.633,11111222 
WAVCIS,ioos:station:WAVCIS:CSI16:1,2011-09-07T23:00:00Z,29.4012,-89.0355,8.63,11111222 
WAVCIS,ioos:station:WAVCIS:CSI16:1,2011-09-08T00:00:00Z,29.4012,-89.0355,8.635,11111222 
WAVCIS,ioos:station:WAVCIS:CSI16:1,2011-09-08T01:00:00Z,29.4012,-89.0355,8.655,11111222 
WAVCIS,ioos:station:WAVCIS:CSI16:1,2011-09-08T02:00:00Z,29.4012,-89.0355,8.689,11111222 
WAVCIS,ioos:station:WAVCIS:CSI16:1,2011-09-08T03:00:00Z,29.4012,-89.0355,8.715,11111222 
WAVCIS,ioos:station:WAVCIS:CSI16:1,2011-09-08T04:00:00Z,29.4012,-89.0355,8.752,11111222 
WAVCIS,ioos:station:WAVCIS:CSI16:1,2011-09-08T05:00:00Z,29.4012,-89.0355,8.779,11111222 
WAVCIS,ioos:station:WAVCIS:CSI16:1,2011-09-08T06:00:00Z,29.4012,-89.0355,8.815,11111222 
WAVCIS,ioos:station:WAVCIS:CSI16:1,2011-09-08T07:00:00Z,29.4012,-89.0355,8.852,11111222 
WAVCIS,ioos:station:WAVCIS:CSI16:1,2011-09-08T08:00:00Z,29.4012,-89.0355,8.89,11111222 
WAVCIS,ioos:station:WAVCIS:CSI16:1,2011-09-08T09:00:00Z,29.4012,-89.0355,8.918,11111222 
WAVCIS,ioos:station:WAVCIS:CSI16:1,2011-09-08T10:00:00Z,29.4012,-89.0355,8.942,11111222 
WAVCIS,ioos:station:WAVCIS:CSI16:1,2011-09-08T11:00:00Z,29.4012,-89.0355,8.962,11111222 
WAVCIS,ioos:station:WAVCIS:CSI16:1,2011-09-08T12:00:00Z,29.4012,-89.0355,8.975,11111222 
WAVCIS,ioos:station:WAVCIS:CSI16:1,2011-09-08T13:00:00Z,29.4012,-89.0355,8.979,11111222 
WAVCIS,ioos:station:WAVCIS:CSI16:1,2011-09-08T14:00:00Z,29.4012,-89.0355,8.971,11111222 
WAVCIS,ioos:station:WAVCIS:CSI16:1,2011-09-08T15:00:00Z,29.4012,-89.0355,8.942,11111222 
WAVCIS,ioos:station:WAVCIS:CSI16:1,2011-09-08T16:00:00Z,29.4012,-89.0355,8.895,11111222 
WAVCIS,ioos:station:WAVCIS:CSI16:1,2011-09-08T17:00:00Z,29.4012,-89.0355,8.831,11111222 
WAVCIS,ioos:station:WAVCIS:CSI16:1,2011-09-08T18:00:00Z,29.4012,-89.0355,8.777,11111222 
WAVCIS,ioos:station:WAVCIS:CSI16:1,2011-09-08T19:00:00Z,29.4012,-89.0355,8.707,11111222 
WAVCIS,ioos:station:WAVCIS:CSI16:1,2011-09-08T20:00:00Z,29.4012,-89.0355,8.663,11111222 
WAVCIS,ioos:station:WAVCIS:CSI16:1,2011-09-08T21:00:00Z,29.4012,-89.0355,8.633,11111222 
WAVCIS,ioos:station:WAVCIS:CSI16:1,2011-09-08T22:00:00Z,29.4012,-89.0355,8.604,11111222 
WAVCIS,ioos:station:WAVCIS:CSI16:1,2011-09-08T23:00:00Z,29.4012,-89.0355,8.601,11111222 
WAVCIS,ioos:station:WAVCIS:CSI16:1,2011-09-09T00:00:00Z,29.4012,-89.0355,8.607,11111222 
WAVCIS,ioos:station:WAVCIS:CSI16:1,2011-09-09T01:00:00Z,29.4012,-89.0355,8.617,11111222 
WAVCIS,ioos:station:WAVCIS:CSI16:1,2011-09-09T02:00:00Z,29.4012,-89.0355,8.639,11111222 
WAVCIS,ioos:station:WAVCIS:CSI16:1,2011-09-09T03:00:00Z,29.4012,-89.0355,8.656,11111222 
WAVCIS,ioos:station:WAVCIS:CSI16:1,2011-09-09T04:00:00Z,29.4012,-89.0355,8.668,11111222 
WAVCIS,ioos:station:WAVCIS:CSI16:1,2011-09-09T05:00:00Z,29.4012,-89.0355,8.683,11111222 
WAVCIS,ioos:station:WAVCIS:CSI16:1,2011-09-09T06:00:00Z,29.4012,-89.0355,8.696,11111222 
WAVCIS,ioos:station:WAVCIS:CSI16:1,2011-09-09T07:00:00Z,29.4012,-89.0355,8.717,11111222 
WAVCIS,ioos:station:WAVCIS:CSI16:1,2011-09-09T08:00:00Z,29.4012,-89.0355,8.739,11111222 
WAVCIS,ioos:station:WAVCIS:CSI16:1,2011-09-09T09:00:00Z,29.4012,-89.0355,8.777,11111222 
WAVCIS,ioos:station:WAVCIS:CSI16:1,2011-09-09T10:00:00Z,29.4012,-89.0355,8.803,11111222 
WAVCIS,ioos:station:WAVCIS:CSI16:1,2011-09-09T11:00:00Z,29.4012,-89.0355,8.824,11111222 
WAVCIS,ioos:station:WAVCIS:CSI16:1,2011-09-09T12:00:00Z,29.4012,-89.0355,8.843,11111222 
WAVCIS,ioos:station:WAVCIS:CSI16:1,2011-09-09T13:00:00Z,29.4012,-89.0355,8.855,11111222 
WAVCIS,ioos:station:WAVCIS:CSI16:1,2011-09-09T14:00:00Z,29.4012,-89.0355,8.861,11111222 
WAVCIS,ioos:station:WAVCIS:CSI16:1,2011-09-09T15:00:00Z,29.4012,-89.0355,8.858,11111222 
WAVCIS,ioos:station:WAVCIS:CSI16:1,2011-09-09T16:00:00Z,29.4012,-89.0355,8.839,11111222 
WAVCIS,ioos:station:WAVCIS:CSI16:1,2011-09-09T17:00:00Z,29.4012,-89.0355,8.799,11111222 
WAVCIS,ioos:station:WAVCIS:CSI16:1,2011-09-09T18:00:00Z,29.4012,-89.0355,8.747,11111222 
WAVCIS,ioos:station:WAVCIS:CSI16:1,2011-09-09T19:00:00Z,29.4012,-89.0355,8.702,11111222 
WAVCIS,ioos:station:WAVCIS:CSI16:1,2011-09-09T20:00:00Z,29.4012,-89.0355,8.662,11111222 
WAVCIS,ioos:station:WAVCIS:CSI16:1,2011-09-09T21:00:00Z,29.4012,-89.0355,8.634,11111222 
WAVCIS,ioos:station:WAVCIS:CSI16:1,2011-09-09T22:00:00Z,29.4012,-89.0355,8.617,11111222 
WAVCIS,ioos:station:WAVCIS:CSI16:1,2011-09-09T23:00:00Z,29.4012,-89.0355,8.603,11111222 
WAVCIS,ioos:station:WAVCIS:CSI16:1,2011-09-10T00:00:00Z,29.4012,-89.0355,8.61,11111222 
WAVCIS,ioos:station:WAVCIS:CSI16:1,2011-09-10T01:00:00Z,29.4012,-89.0355,8.623,11111222 
WAVCIS,ioos:station:WAVCIS:CSI16:1,2011-09-10T02:00:00Z,29.4012,-89.0355,8.646,11111222 
WAVCIS,ioos:station:WAVCIS:CSI16:1,2011-09-10T03:00:00Z,29.4012,-89.0355,8.673,11111222 
WAVCIS,ioos:station:WAVCIS:CSI16:1,2011-09-10T04:00:00Z,29.4012,-89.0355,8.697,11111222 
WAVCIS,ioos:station:WAVCIS:CSI16:1,2011-09-10T05:00:00Z,29.4012,-89.0355,8.702,11111222 
WAVCIS,ioos:station:WAVCIS:CSI16:1,2011-09-10T06:00:00Z,29.4012,-89.0355,8.719,11111222 
WAVCIS,ioos:station:WAVCIS:CSI16:1,2011-09-10T07:00:00Z,29.4012,-89.0355,8.728,11111222 
WAVCIS,ioos:station:WAVCIS:CSI16:1,2011-09-10T08:00:00Z,29.4012,-89.0355,8.742,11111222 
WAVCIS,ioos:station:WAVCIS:CSI16:1,2011-09-10T09:00:00Z,29.4012,-89.0355,8.773,11111222 
WAVCIS,ioos:station:WAVCIS:CSI16:1,2011-09-10T10:00:00Z,29.4012,-89.0355,8.799,11111222 
WAVCIS,ioos:station:WAVCIS:CSI16:1,2011-09-10T11:00:00Z,29.4012,-89.0355,8.824,11111222 
WAVCIS,ioos:station:WAVCIS:CSI16:1,2011-09-10T12:00:00Z,29.4012,-89.0355,8.849,11111222 
WAVCIS,ioos:station:WAVCIS:CSI16:1,2011-09-10T13:00:00Z,29.4012,-89.0355,8.869,11111222 
WAVCIS,ioos:station:WAVCIS:CSI16:1,2011-09-10T14:00:00Z,29.4012,-89.0355,8.879,11111222 
WAVCIS,ioos:station:WAVCIS:CSI16:1,2011-09-10T15:00:00Z,29.4012,-89.0355,8.883,11111222 
WAVCIS,ioos:station:WAVCIS:CSI16:1,2011-09-10T16:00:00Z,29.4012,-89.0355,8.871,11111222 
WAVCIS,ioos:station:WAVCIS:CSI16:1,2011-09-10T17:00:00Z,29.4012,-89.0355,8.844,11111222 
WAVCIS,ioos:station:WAVCIS:CSI16:1,2011-09-10T18:00:00Z,29.4012,-89.0355,8.802,11111222 
WAVCIS,ioos:station:WAVCIS:CSI16:1,2011-09-10T19:00:00Z,29.4012,-89.0355,8.745,11111222 
WAVCIS,ioos:station:WAVCIS:CSI16:1,2011-09-10T20:00:00Z,29.4012,-89.0355,8.703,11111222 
WAVCIS,ioos:station:WAVCIS:CSI16:1,2011-09-10T21:00:00Z,29.4012,-89.0355,8.671,11111222 
WAVCIS,ioos:station:WAVCIS:CSI16:1,2011-09-10T22:00:00Z,29.4012,-89.0355,8.66,11111222 
WAVCIS,ioos:station:WAVCIS:CSI16:1,2011-09-10T23:00:00Z,29.4012,-89.0355,8.653,11111222 
WAVCIS,ioos:station:WAVCIS:CSI16:1,2011-09-11T00:00:00Z,29.4012,-89.0355,8.647,11111222 
WAVCIS,ioos:station:WAVCIS:CSI16:1,2011-09-11T01:00:00Z,29.4012,-89.0355,8.655,11111222 
WAVCIS,ioos:station:WAVCIS:CSI16:1,2011-09-11T02:00:00Z,29.4012,-89.0355,8.665,11111222 
WAVCIS,ioos:station:WAVCIS:CSI16:1,2011-09-11T03:00:00Z,29.4012,-89.0355,8.682,11111222 
WAVCIS,ioos:station:WAVCIS:CSI16:1,2011-09-11T04:00:00Z,29.4012,-89.0355,8.692,11111222 
WAVCIS,ioos:station:WAVCIS:CSI16:1,2011-09-11T05:00:00Z,29.4012,-89.0355,8.694,11111222 
WAVCIS,ioos:station:WAVCIS:CSI16:1,2011-09-11T06:00:00Z,29.4012,-89.0355,8.697,11111222 
WAVCIS,ioos:station:WAVCIS:CSI16:1,2011-09-11T07:00:00Z,29.4012,-89.0355,8.702,11111222 
WAVCIS,ioos:station:WAVCIS:CSI16:1,2011-09-11T08:00:00Z,29.4012,-89.0355,8.704,11111222 
WAVCIS,ioos:station:WAVCIS:CSI16:1,2011-09-11T09:00:00Z,29.4012,-89.0355,8.719,11111222 
WAVCIS,ioos:station:WAVCIS:CSI16:1,2011-09-11T10:00:00Z,29.4012,-89.0355,8.753,11111222 
WAVCIS,ioos:station:WAVCIS:CSI16:1,2011-09-11T11:00:00Z,29.4012,-89.0355,8.788,11111222 
WAVCIS,ioos:station:WAVCIS:CSI16:1,2011-09-11T12:00:00Z,29.4012,-89.0355,8.821,11111222 
WAVCIS,ioos:station:WAVCIS:CSI16:1,2011-09-11T13:00:00Z,29.4012,-89.0355,8.839,11111222 
WAVCIS,ioos:station:WAVCIS:CSI16:1,2011-09-11T14:00:00Z,29.4012,-89.0355,8.857,11111222 
WAVCIS,ioos:station:WAVCIS:CSI16:1,2011-09-11T15:00:00Z,29.4012,-89.0355,8.867,11111222 
WAVCIS,ioos:station:WAVCIS:CSI16:1,2011-09-11T16:00:00Z,29.4012,-89.0355,8.868,11111222 
WAVCIS,ioos:station:WAVCIS:CSI16:1,2011-09-11T17:00:00Z,29.4012,-89.0355,8.872,11111222 
WAVCIS,ioos:station:WAVCIS:CSI16:1,2011-09-11T18:00:00Z,29.4012,-89.0355,8.846,11111222 
WAVCIS,ioos:station:WAVCIS:CSI16:1,2011-09-11T19:00:00Z,29.4012,-89.0355,8.802,11111222 
WAVCIS,ioos:station:WAVCIS:CSI16:1,2011-09-11T20:00:00Z,29.4012,-89.0355,8.767,11111222 
WAVCIS,ioos:station:WAVCIS:CSI16:1,2011-09-11T21:00:00Z,29.4012,-89.0355,8.736,11111222 
WAVCIS,ioos:station:WAVCIS:CSI16:1,2011-09-11T22:00:00Z,29.4012,-89.0355,8.722,11111222 
WAVCIS,ioos:station:WAVCIS:CSI16:1,2011-09-11T23:00:00Z,29.4012,-89.0355,8.715,11111222 
WAVCIS,ioos:station:WAVCIS:CSI16:1,2011-09-12T00:00:00Z,29.4012,-89.0355,8.715,11111222 
WAVCIS,ioos:station:WAVCIS:CSI16:1,2011-09-12T01:00:00Z,29.4012,-89.0355,8.714,11111222 
WAVCIS,ioos:station:WAVCIS:CSI16:1,2011-09-12T02:00:00Z,29.4012,-89.0355,8.717,11111222 
WAVCIS,ioos:station:WAVCIS:CSI16:1,2011-09-12T03:00:00Z,29.4012,-89.0355,8.72,11111222 
WAVCIS,ioos:station:WAVCIS:CSI16:1,2011-09-12T04:00:00Z,29.4012,-89.0355,8.717,11111222 
WAVCIS,ioos:station:WAVCIS:CSI16:1,2011-09-12T05:00:00Z,29.4012,-89.0355,8.705,11111222 